Weather History for Covington, KY

Change the Weather History Date:

Sunday, December 9, 2012

  Actual Average Record
Temperature  
Mean Temperature 54 °F 36 °F  
Max Temperature 61 °F 43 °F 66 °F (1946)
Min Temperature 46 °F 28 °F -8 °F (1917)
Degree Days  
Heating Degree Days 11 29  
Month to date heating degree days 120 251  
Since 1 July heating degree days 1226 1211  
Cooling Degree Days 0 0  
Month to date cooling degree days 0 0  
Year to date cooling degree days 1439 1121  
Growing Degree Days 4 (Base 50)    
Moisture  
Dew Point 51 °F    
Average Humidity 93    
Maximum Humidity 100    
Minimum Humidity 86    
Precipitation  
Precipitation 1.06 in 0.12 in 1.50 in (1952)
Month to date precipitation 3.23 1.01  
Year to date precipitation 36.26 40.16  
Snow  
Snow 0.00 in 0.10 in 4.40 in (1961)
Month to date snowfall 0.0 0.9  
Since 1 July snowfall T 1.7  
Snow Depth 0.00 in    
Sea Level Pressure  
Sea Level Pressure 29.86 in    
Wind  
Wind Speed 9 mph (SSE)    
Max Wind Speed 23 mph    
Max Gust Speed 35 mph    
Visibility 6 miles    
Events Rain , Thunderstorm    
T = Trace of Precipitation, MM = Missing Value Source: NWS Daily Summary

Daily Weather History Graph

Daily Weather History Graph

Search for Another Location

Airport:

Trip Planner

Search our weather history database for the weather conditions in past years. The results will help you decide how hot, cold, wet, or windy it might be!

Date:

Astronomy

Dec. 09, 2012 Rise Set
Actual Time 7:46 AM EST 5:16 PM EST
Civil Twilight 7:16 AM EST 5:46 PM EST
Nautical Twilight 6:43 AM EST 6:19 PM EST
Astronomical Twilight 6:10 AM EST 6:51 PM EST
Moon 3:19 AM EST (12/9) 2:21 PM EST (12/9)
Length of Visible Light 10h 29m
Length of Day
9h 29m
Waning Crescent, 19% of the Moon is Illuminated
Dec 9
Waning Crescent
Dec 13
New
Dec 20
First Quarter
Dec 28
Full
Jan 4
Last Quarter

Hourly Weather History & Observations

Time (EST) Temp. Windchill Dew Point Humidity Pressure Visibility Wind Dir Wind Speed Gust Speed Precip Events Conditions
12:39 AM 48.2 °F - 44.6 °F 87% 30.02 in 6.0 mi ENE 9.2 mph - N/A   Overcast
12:52 AM 48.0 °F - 44.1 °F 86% 30.01 in 6.0 mi ENE 9.2 mph - N/A   Overcast
1:52 AM 48.0 °F - 44.1 °F 86% 30.01 in 7.0 mi ENE 10.4 mph - N/A   Overcast
2:52 AM 48.0 °F - 45.0 °F 89% 30.02 in 6.0 mi ENE 9.2 mph - N/A   Overcast
3:52 AM 46.9 °F - 44.1 °F 90% 30.00 in 6.0 mi ENE 11.5 mph - N/A   Overcast
4:47 AM 46.4 °F 41.5 °F 44.6 °F 93% 30.00 in 6.0 mi ENE 10.4 mph - N/A   Overcast
4:52 AM 46.9 °F - 44.1 °F 90% 30.00 in 6.0 mi ENE 9.2 mph - N/A   Overcast
5:52 AM 46.0 °F 41.0 °F 44.1 °F 93% 29.99 in 6.0 mi ENE 10.4 mph - N/A   Overcast
6:52 AM 46.0 °F 41.9 °F 44.1 °F 93% 29.98 in 7.0 mi ENE 8.1 mph - N/A   Overcast
7:52 AM 46.4 °F 42.4 °F 45.0 °F 95% 29.97 in 3.0 mi East 8.1 mph - 0.00 in   Light Drizzle
8:33 AM 46.4 °F 41.1 °F 44.6 °F 93% 29.95 in 2.5 mi East 11.5 mph - 0.00 in   Overcast
8:52 AM 46.9 °F - 45.0 °F 93% 29.94 in 2.5 mi East 10.4 mph - 0.00 in   Overcast
9:00 AM 46.4 °F 41.9 °F 46.4 °F 100% 29.94 in 1.0 mi East 9.2 mph - N/A   Overcast
9:09 AM 46.4 °F 42.4 °F 46.4 °F 100% 29.95 in 1.0 mi ESE 8.1 mph - N/A   Overcast
9:52 AM 48.0 °F - 46.9 °F 96% 29.96 in 1.0 mi SE 10.4 mph - 0.00 in   Light Drizzle
10:52 AM 50.0 °F - 48.9 °F 96% 29.93 in 1.0 mi SE 8.1 mph - 0.00 in   Overcast
11:47 AM 51.8 °F - 51.8 °F 100% 29.90 in 5.0 mi SE 9.2 mph - N/A   Overcast
11:52 AM 52.0 °F - 51.1 °F 97% 29.90 in 6.0 mi SSE 9.2 mph - N/A   Overcast
12:52 PM 55.4 °F - 53.6 °F 94% 29.85 in 8.0 mi SSE 11.5 mph - N/A   Overcast
1:52 PM 57.9 °F - 55.9 °F 93% 29.82 in 10.0 mi South 6.9 mph - N/A   Overcast
2:29 PM 60.8 °F - 57.2 °F 88% 29.82 in 10.0 mi South 6.9 mph - N/A   Overcast
2:52 PM 60.1 °F - 57.0 °F 90% 29.81 in 10.0 mi SSW 8.1 mph - N/A   Overcast
3:52 PM 60.1 °F - 57.0 °F 90% 29.81 in 10.0 mi South 8.1 mph - 0.00 in   Overcast
4:02 PM 60.8 °F - 57.2 °F 88% 29.81 in 10.0 mi South 9.2 mph - N/A   Overcast
4:31 PM 60.8 °F - 57.2 °F 88% 29.81 in 10.0 mi South 6.9 mph - N/A   Mostly Cloudy
4:52 PM 60.1 °F - 57.0 °F 90% 29.81 in 10.0 mi South 9.2 mph - 0.00 in Rain Light Rain
5:35 PM 60.8 °F - 57.2 °F 88% 29.79 in 10.0 mi South 6.9 mph - 0.00 in Rain Light Rain
5:37 PM 60.8 °F - 57.2 °F 88% 29.79 in 9.0 mi South 8.1 mph - 0.00 in Rain Light Rain
5:52 PM 60.1 °F - 57.9 °F 93% 29.78 in 10.0 mi South 11.5 mph - 0.00 in   Overcast
6:52 PM 60.1 °F - 57.9 °F 93% 29.77 in 10.0 mi South 9.2 mph - 0.00 in   Overcast
7:52 PM 60.1 °F - 57.9 °F 93% 29.75 in 10.0 mi South 10.4 mph - N/A   Overcast
8:09 PM 59.0 °F - 57.2 °F 94% 29.74 in 10.0 mi South 6.9 mph - 0.00 in Rain , Thunderstorm Light Thunderstorms and Rain
8:23 PM 59.0 °F - 57.2 °F 94% 29.77 in 2.0 mi West 21.9 mph 34.5 mph 0.06 in Rain , Thunderstorm Heavy Thunderstorms and Rain
8:33 PM 55.4 °F - 53.6 °F 94% 29.74 in 2.0 mi WSW 5.8 mph 25.3 mph 0.36 in Rain , Thunderstorm Heavy Thunderstorms and Rain
8:37 PM 55.4 °F - 53.6 °F 94% 29.74 in 4.0 mi WSW 3.5 mph 25.3 mph 0.43 in Rain , Thunderstorm Heavy Thunderstorms and Rain
8:52 PM 55.0 °F - 53.1 °F 93% 29.72 in 6.0 mi South 6.9 mph - 0.44 in Rain Light Rain
9:52 PM 55.0 °F - 54.0 °F 96% 29.73 in 9.0 mi South 8.1 mph - 0.13 in Rain Light Rain
10:34 PM 53.6 °F - 53.6 °F 100% 29.74 in 3.0 mi South 9.2 mph - 0.10 in Rain Heavy Rain
10:52 PM 55.0 °F - 54.0 °F 96% 29.73 in 5.0 mi South 9.2 mph - 0.19 in Rain , Thunderstorm Thunderstorms and Rain
10:59 PM 53.6 °F - 53.6 °F 100% 29.73 in 5.0 mi South 6.9 mph - 0.04 in Rain , Thunderstorm Thunderstorms and Rain
11:48 PM 55.4 °F - 53.6 °F 94% 29.72 in 5.0 mi SSW 9.2 mph - 0.23 in Rain Rain
11:52 PM 55.0 °F - 54.0 °F 96% 29.71 in 4.0 mi South 8.1 mph - 0.26 in Rain Heavy Rain